Tracking 23645 objects as of 21-Sep-2021
HD Live streaming from Space Station
objects crossing your sky now

TRISAT

Track TRISAT now!
10-day predictions


NORAD ID: 46280
Int'l Code: 2020-061J
Perigee: 537.9 km
Apogee: 545.6 km
Inclination: 97.5 °
Period: 95.3 minutes
Semi major axis: 6912 km
RCS: Unknown
Launch date: September 3, 2020
Source: Republic of Slovenia (SVN)
Launch site: FRENCH GUIANA (FRGUI)
aabbcc
Your satellite tracking list
Your tracking list is empty




NASA's NSSDC Master Catalog

Two Line Element Set (TLE):
1 46280U 20061J   21264.47367651  .00001382  00000-0  87667-4 0  9995
2 46280  97.4802 335.4954 0005556 105.4205 254.7639 15.10509625 57836
Source of the keplerian elements: AFSPC